Time,TemperatureF,DewpointF,PressureIn,WindDirection,WindDirectionDegrees,WindSpeedMPH,WindSpeedGustMPH,Humidity,HourlyPrecipIn,Conditions,Clouds,dailyrainin,SoftwareType,DateUTC
2013-06-28 00:01:00,62.0,61.0,-100.00,SW,220,1.0,3.0,96,-99.99,,,-99.99,,2013-06-28 05:01:00,
2013-06-28 00:33:00,61.0,60.0,-100.00,WSW,240,2.0,6.0,98,-99.99,,,-99.99,,2013-06-28 05:33:00,
2013-06-28 00:43:00,61.0,60.0,-100.00,WSW,240,2.0,6.0,98,-99.99,,,-99.99,,2013-06-28 05:43:00,
2013-06-28 00:53:00,61.0,60.0,-100.00,WSW,240,2.0,6.0,98,-99.99,,,-99.99,,2013-06-28 05:53:00,
2013-06-28 01:02:00,61.0,60.0,-100.00,WSW,240,2.0,6.0,98,-99.99,,,-99.99,,2013-06-28 06:02:00,
2013-06-28 01:10:00,60.0,59.0,-100.00,SW,235,3.0,4.0,98,-99.99,,,-99.99,,2013-06-28 06:10:00,
2013-06-28 01:34:00,60.0,59.0,-100.00,SW,235,3.0,4.0,98,-99.99,,,-99.99,,2013-06-28 06:34:00,
2013-06-28 01:43:00,60.0,59.0,-100.00,SW,235,3.0,4.0,98,-99.99,,,-99.99,,2013-06-28 06:43:00,
2013-06-28 01:52:00,60.0,59.0,-100.00,SW,235,3.0,4.0,98,-99.99,,,-99.99,,2013-06-28 06:52:00,
2013-06-28 02:01:00,60.0,59.0,-100.00,SW,235,3.0,4.0,98,-99.99,,,-99.99,,2013-06-28 07:01:00,
2013-06-28 02:33:00,59.0,58.0,-100.00,WSW,255,0.0,1.0,98,-99.99,,,-99.99,,2013-06-28 07:33:00,
2013-06-28 02:43:00,59.0,58.0,-100.00,WSW,255,0.0,1.0,98,-99.99,,,-99.99,,2013-06-28 07:43:00,
2013-06-28 02:52:00,59.0,58.0,-100.00,WSW,255,0.0,1.0,98,-99.99,,,-99.99,,2013-06-28 07:52:00,
2013-06-28 03:01:00,59.0,58.0,-100.00,WSW,255,0.0,1.0,98,-99.99,,,-99.99,,2013-06-28 08:01:00,
2013-06-28 03:33:00,58.0,57.0,-100.00,SW,230,1.0,4.0,98,-99.99,,,-99.99,,2013-06-28 08:33:00,
2013-06-28 03:43:00,58.0,57.0,-100.00,SW,230,1.0,4.0,98,-99.99,,,-99.99,,2013-06-28 08:43:00,
2013-06-28 03:52:00,58.0,57.0,-100.00,SW,230,1.0,4.0,98,-99.99,,,-99.99,,2013-06-28 08:52:00,
2013-06-28 04:02:00,58.0,57.0,-100.00,SW,230,1.0,4.0,98,-99.99,,,-99.99,,2013-06-28 09:02:00,
2013-06-28 04:10:00,58.0,58.0,-100.00,SW,230,3.0,4.0,98,-99.99,,,-99.99,,2013-06-28 09:10:00,
2013-06-28 04:33:00,58.0,58.0,-100.00,SW,230,3.0,4.0,98,-99.99,,,-99.99,,2013-06-28 09:33:00,
2013-06-28 04:42:00,58.0,58.0,-100.00,SW,230,3.0,4.0,98,-99.99,,,-99.99,,2013-06-28 09:42:00,
2013-06-28 04:52:00,58.0,58.0,-100.00,SW,230,3.0,4.0,98,-99.99,,,-99.99,,2013-06-28 09:52:00,
2013-06-28 05:02:00,58.0,58.0,-100.00,SW,230,3.0,4.0,98,-99.99,,,-99.99,,2013-06-28 10:02:00,
2013-06-28 05:10:00,60.0,59.0,-100.00,West,260,2.0,6.0,98,-99.99,,,-99.99,,2013-06-28 10:10:00,
2013-06-28 05:33:00,60.0,59.0,-100.00,West,260,2.0,6.0,98,-99.99,,,-99.99,,2013-06-28 10:33:00,
2013-06-28 05:42:00,60.0,59.0,-100.00,West,260,2.0,6.0,98,-99.99,,,-99.99,,2013-06-28 10:42:00,
2013-06-28 05:52:00,60.0,59.0,-100.00,West,260,2.0,6.0,98,-99.99,,,-99.99,,2013-06-28 10:52:00,
2013-06-28 06:02:00,60.0,59.0,-100.00,West,260,2.0,6.0,98,-99.99,,,-99.99,,2013-06-28 11:02:00,
2013-06-28 06:34:00,62.0,60.0,-100.00,West,260,6.0,7.0,95,-99.99,,,-99.99,,2013-06-28 11:34:00,
2013-06-28 06:43:00,62.0,60.0,-100.00,West,260,6.0,7.0,95,-99.99,,,-99.99,,2013-06-28 11:43:00,
2013-06-28 06:53:00,62.0,60.0,-100.00,West,260,6.0,7.0,95,-99.99,,,-99.99,,2013-06-28 11:53:00,
2013-06-28 07:02:00,62.0,60.0,-100.00,West,260,6.0,7.0,95,-99.99,,,-99.99,,2013-06-28 12:02:00,
2013-06-28 08:33:00,66.0,58.0,-100.00,West,260,7.0,12.0,76,-99.99,,,-99.99,,2013-06-28 13:33:00,
2013-06-28 08:43:00,66.0,58.0,-100.00,West,260,7.0,12.0,76,-99.99,,,-99.99,,2013-06-28 13:43:00,
2013-06-28 08:53:00,66.0,58.0,-100.00,West,260,7.0,12.0,76,-99.99,,,-99.99,,2013-06-28 13:53:00,
2013-06-28 09:02:00,66.0,58.0,-100.00,West,260,7.0,12.0,76,-99.99,,,-99.99,,2013-06-28 14:02:00,
2013-06-28 09:33:00,67.0,58.0,-100.00,NW,305,5.0,14.0,73,-99.99,,,-99.99,,2013-06-28 14:33:00,
2013-06-28 09:44:00,67.0,58.0,-100.00,NW,305,5.0,14.0,73,-99.99,,,-99.99,,2013-06-28 14:44:00,
2013-06-28 09:53:00,67.0,58.0,-100.00,NW,305,5.0,14.0,73,-99.99,,,-99.99,,2013-06-28 14:53:00,
2013-06-28 10:02:00,67.0,58.0,-100.00,NW,305,5.0,14.0,73,-99.99,,,-99.99,,2013-06-28 15:02:00,
2013-06-28 10:34:00,67.0,60.0,-100.00,WNW,285,9.0,18.0,77,-99.99,,,-99.99,,2013-06-28 15:34:00,
2013-06-28 10:43:00,67.0,60.0,-100.00,WNW,285,9.0,18.0,77,-99.99,,,-99.99,,2013-06-28 15:43:00,
2013-06-28 10:52:00,67.0,60.0,-100.00,WNW,285,9.0,18.0,77,-99.99,,,-99.99,,2013-06-28 15:52:00,
2013-06-28 11:01:00,67.0,60.0,-100.00,WNW,285,9.0,18.0,77,-99.99,,,-99.99,,2013-06-28 16:01:00,
2013-06-28 11:33:00,70.0,60.0,-100.00,WNW,285,7.0,16.0,73,-99.99,,,-99.99,,2013-06-28 16:33:00,
2013-06-28 11:44:00,70.0,60.0,-100.00,WNW,285,7.0,16.0,73,-99.99,,,-99.99,,2013-06-28 16:44:00,
2013-06-28 11:53:00,70.0,60.0,-100.00,WNW,285,7.0,16.0,73,-99.99,,,-99.99,,2013-06-28 16:53:00,
2013-06-28 12:02:00,70.0,60.0,-100.00,WNW,285,7.0,16.0,73,-99.99,,,-99.99,,2013-06-28 17:02:00,
2013-06-28 12:33:00,67.0,64.0,-100.00,West,280,8.0,24.0,92,-99.99,,,-99.99,,2013-06-28 17:33:00,
2013-06-28 12:44:00,67.0,64.0,-100.00,West,280,8.0,24.0,92,-99.99,,,-99.99,,2013-06-28 17:44:00,
2013-06-28 12:52:00,67.0,64.0,-100.00,West,280,8.0,24.0,92,-99.99,,,-99.99,,2013-06-28 17:52:00,
2013-06-28 13:02:00,67.0,64.0,-100.00,West,280,8.0,24.0,92,-99.99,,,-99.99,,2013-06-28 18:02:00,
2013-06-28 14:10:00,71.0,58.0,-100.00,NNW,345,6.0,12.0,63,-99.99,,,-99.99,,2013-06-28 19:10:00,
2013-06-28 14:33:00,71.0,58.0,-100.00,NNW,345,6.0,12.0,63,-99.99,,,-99.99,,2013-06-28 19:33:00,
2013-06-28 14:43:00,71.0,58.0,-100.00,NNW,345,6.0,12.0,63,-99.99,,,-99.99,,2013-06-28 19:43:00,
2013-06-28 14:53:00,71.0,58.0,-100.00,NNW,345,6.0,12.0,63,-99.99,,,-99.99,,2013-06-28 19:53:00,
2013-06-28 15:02:00,71.0,58.0,-100.00,NNW,345,6.0,12.0,63,-99.99,,,-99.99,,2013-06-28 20:02:00,
2013-06-28 15:10:00,74.0,57.0,-100.00,WNW,295,14.0,24.0,56,-99.99,,,-99.99,,2013-06-28 20:10:00,
2013-06-28 15:33:00,74.0,57.0,-100.00,WNW,295,14.0,24.0,56,-99.99,,,-99.99,,2013-06-28 20:33:00,
2013-06-28 15:43:00,74.0,57.0,-100.00,WNW,295,14.0,24.0,56,-99.99,,,-99.99,,2013-06-28 20:43:00,
2013-06-28 15:52:00,74.0,57.0,-100.00,WNW,295,14.0,24.0,56,-99.99,,,-99.99,,2013-06-28 20:52:00,
2013-06-28 16:02:00,74.0,57.0,-100.00,WNW,295,14.0,24.0,56,-99.99,,,-99.99,,2013-06-28 21:02:00,
2013-06-28 16:34:00,74.0,58.0,-100.00,WNW,290,9.0,18.0,57,-99.99,,,-99.99,,2013-06-28 21:34:00,
2013-06-28 16:43:00,74.0,58.0,-100.00,WNW,290,9.0,18.0,57,-99.99,,,-99.99,,2013-06-28 21:43:00,
2013-06-28 16:53:00,74.0,58.0,-100.00,WNW,290,9.0,18.0,57,-99.99,,,-99.99,,2013-06-28 21:53:00,
2013-06-28 17:01:00,74.0,58.0,-100.00,WNW,290,9.0,18.0,57,-99.99,,,-99.99,,2013-06-28 22:01:00,
2013-06-28 17:34:00,70.0,63.0,-100.00,West,275,7.0,12.0,79,-99.99,,,-99.99,,2013-06-28 22:34:00,
2013-06-28 17:43:00,70.0,63.0,-100.00,West,275,7.0,12.0,79,-99.99,,,-99.99,,2013-06-28 22:43:00,
2013-06-28 17:52:00,70.0,63.0,-100.00,West,275,7.0,12.0,79,-99.99,,,-99.99,,2013-06-28 22:52:00,
2013-06-28 18:02:00,70.0,63.0,-100.00,West,275,7.0,12.0,79,-99.99,,,-99.99,,2013-06-28 23:02:00,
2013-06-28 19:10:00,69.0,64.0,-100.00,NW,305,3.0,7.0,83,-99.99,,,-99.99,,2013-06-29 00:10:00,
2013-06-28 19:33:00,69.0,64.0,-100.00,NW,305,3.0,7.0,83,-99.99,,,-99.99,,2013-06-29 00:33:00,
2013-06-28 19:42:00,69.0,64.0,-100.00,NW,305,3.0,7.0,83,-99.99,,,-99.99,,2013-06-29 00:42:00,
2013-06-28 19:52:00,69.0,64.0,-100.00,NW,305,3.0,7.0,83,-99.99,,,-99.99,,2013-06-29 00:52:00,
2013-06-28 20:01:00,69.0,64.0,-100.00,NW,305,3.0,7.0,83,-99.99,,,-99.99,,2013-06-29 01:01:00,
2013-06-28 21:10:00,65.0,65.0,-100.00,NW,325,2.0,9.0,98,-99.99,,,-99.99,,2013-06-29 02:10:00,
2013-06-28 21:31:00,65.0,65.0,-100.00,NW,325,2.0,9.0,98,-99.99,,,-99.99,,2013-06-29 02:31:00,
2013-06-28 21:41:00,65.0,65.0,-100.00,NW,325,2.0,9.0,98,-99.99,,,-99.99,,2013-06-29 02:41:00,
2013-06-28 21:51:00,65.0,65.0,-100.00,NW,325,2.0,9.0,98,-99.99,,,-99.99,,2013-06-29 02:51:00,
2013-06-28 22:01:00,65.0,65.0,-100.00,NW,325,2.0,9.0,98,-99.99,,,-99.99,,2013-06-29 03:01:00,
2013-06-28 22:10:00,64.0,64.0,-100.00,NW,310,2.0,7.0,98,-99.99,,,-99.99,,2013-06-29 03:10:00,
2013-06-28 22:32:00,64.0,64.0,-100.00,NW,310,2.0,7.0,98,-99.99,,,-99.99,,2013-06-29 03:32:00,
2013-06-28 22:41:00,64.0,64.0,-100.00,NW,310,2.0,7.0,98,-99.99,,,-99.99,,2013-06-29 03:41:00,
2013-06-28 22:51:00,64.0,64.0,-100.00,NW,310,2.0,7.0,98,-99.99,,,-99.99,,2013-06-29 03:51:00,
2013-06-28 23:01:00,64.0,64.0,-100.00,NW,310,2.0,7.0,98,-99.99,,,-99.99,,2013-06-29 04:01:00,
2013-06-28 23:10:00,64.0,63.0,-100.00,NNW,335,1.0,4.0,98,-99.99,,,-99.99,,2013-06-29 04:10:00,
2013-06-28 23:32:00,64.0,63.0,-100.00,NNW,335,1.0,4.0,98,-99.99,,,-99.99,,2013-06-29 04:32:00,
2013-06-28 23:41:00,64.0,63.0,-100.00,NNW,335,1.0,4.0,98,-99.99,,,-99.99,,2013-06-29 04:41:00,
2013-06-28 23:51:00,64.0,63.0,-100.00,NNW,335,1.0,4.0,98,-99.99,,,-99.99,,2013-06-29 04:51:00,